Вернуться в каталог

STARLINK-32079

АктивенСвязьVLEO
NORAD 60336·PAYLOAD·🇺🇸 United States

Запущен Aug 2, 2024 с Cape Canaveral Space Force Station

Loading…

Ближайшие Пролёты (ближайшие 24 часа)

TLE

СвежийSource: CelesTrak SupGP

Эпоха: Sep 14, 2026, 14:50 UTC

1 60336C 24136H   26257.61854167 -.00002439  00000+0 -72063-4 0  2572
2 60336  53.1585 277.5229 0001250  75.9158 107.6710 15.34387042    14

Отслеживайте STARLINK-32079 в реальном времени с AllMySat

Download on the App Store